DIRECTV 9S

Last updated on Wed Sep 17 2025 00:02:46 GMT+0000 (Coordinated Universal Time)

1 29494U 06043A 25259.56362525 -.00000132 00000+0 00000+0 0 9993 2 29494 1.7098 84.2602 0002946 97.1235 276.0834 1.00271356 48642
UTC large
Height (km)
Speed (km/s)
/
Latitude / Longitude
Inclination (degrees)
Orbital Period (minutes)
Azimuth
Elevation
Range (km)
Doppler Factor

Next 0 passes for location: London (51.5072 / 0.1276)

Sorry there are no passes over London.